Year,Month,Day,Hour,Minute,Value (Times are PST for temperature in C)
2008,07,25,00,00,14.50
2008,07,25,00,01,14.40
2008,07,25,00,02,14.40
2008,07,25,00,03,14.40
2008,07,25,00,04,14.40
2008,07,25,00,05,14.40
2008,07,25,00,06,14.40
2008,07,25,00,07,14.40
2008,07,25,00,08,14.40
2008,07,25,00,09,14.40
2008,07,25,00,10,14.40
2008,07,25,00,11,14.40
2008,07,25,00,12,14.40
2008,07,25,00,13,14.40
2008,07,25,00,14,14.30
2008,07,25,00,15,14.30
2008,07,25,00,16,14.30
2008,07,25,00,17,14.30
2008,07,25,00,18,14.30
2008,07,25,00,19,14.20
2008,07,25,00,20,14.20
2008,07,25,00,21,14.20
2008,07,25,00,22,14.20
2008,07,25,00,23,14.20
2008,07,25,00,24,14.20
2008,07,25,00,25,14.20
2008,07,25,00,26,14.20
2008,07,25,00,27,14.20
2008,07,25,00,28,14.20
2008,07,25,00,29,14.20
2008,07,25,00,30,14.10
2008,07,25,00,31,14.10
2008,07,25,00,32,14.10
2008,07,25,00,33,14.10
2008,07,25,00,34,14.00
2008,07,25,00,35,14.00
2008,07,25,00,36,14.00
2008,07,25,00,37,14.00
2008,07,25,00,38,13.90
2008,07,25,00,39,13.90
2008,07,25,00,40,13.90
2008,07,25,00,41,13.90
2008,07,25,00,42,13.90
2008,07,25,00,43,13.90
2008,07,25,00,44,13.80
2008,07,25,00,45,13.80
2008,07,25,00,46,13.80
2008,07,25,00,47,13.80
2008,07,25,00,48,13.80
2008,07,25,00,49,13.80
2008,07,25,00,50,13.80
2008,07,25,00,51,13.80
2008,07,25,00,52,13.80
2008,07,25,00,53,13.80
2008,07,25,00,54,13.80
2008,07,25,00,55,13.80
2008,07,25,00,56,13.80
2008,07,25,00,57,13.80
2008,07,25,00,58,13.80
2008,07,25,00,59,13.80
2008,07,25,01,00,13.70
2008,07,25,01,01,13.70
2008,07,25,01,02,13.70
2008,07,25,01,03,13.70
2008,07,25,01,04,13.70
2008,07,25,01,05,13.70
2008,07,25,01,06,13.70
2008,07,25,01,07,13.70
2008,07,25,01,08,13.70
2008,07,25,01,09,13.70
2008,07,25,01,10,13.80
2008,07,25,01,11,13.80
2008,07,25,01,12,13.90
2008,07,25,01,13,13.90
2008,07,25,01,14,14.00
2008,07,25,01,15,14.00
2008,07,25,01,16,14.00
2008,07,25,01,17,14.10
2008,07,25,01,18,14.10
2008,07,25,01,19,14.10
2008,07,25,01,20,14.10
2008,07,25,01,21,14.10
2008,07,25,01,22,14.10
2008,07,25,01,23,14.10
2008,07,25,01,24,14.10
2008,07,25,01,25,14.00
2008,07,25,01,26,14.00
2008,07,25,01,27,14.00
2008,07,25,01,28,14.00
2008,07,25,01,29,14.00
2008,07,25,01,30,14.00
2008,07,25,01,31,14.00
2008,07,25,01,32,14.00
2008,07,25,01,33,14.00
2008,07,25,01,34,14.00
2008,07,25,01,35,14.00
2008,07,25,01,36,14.10
2008,07,25,01,37,14.10
2008,07,25,01,38,14.10
2008,07,25,01,39,14.20
2008,07,25,01,40,14.20
2008,07,25,01,41,14.20
2008,07,25,01,42,14.20
2008,07,25,01,43,14.20
2008,07,25,01,44,14.20
2008,07,25,01,45,14.20
2008,07,25,01,46,14.20
2008,07,25,01,47,14.20
2008,07,25,01,48,14.10
2008,07,25,01,49,14.10
2008,07,25,01,50,14.00
2008,07,25,01,51,14.00
2008,07,25,01,52,13.90
2008,07,25,01,53,13.90
2008,07,25,01,54,13.90
2008,07,25,01,55,13.90
2008,07,25,01,56,13.80
2008,07,25,01,57,13.80
2008,07,25,01,58,13.70
2008,07,25,01,59,13.70
2008,07,25,02,00,13.70
2008,07,25,02,01,13.70
2008,07,25,02,02,13.70
2008,07,25,02,03,13.70
2008,07,25,02,04,13.70
2008,07,25,02,05,13.70
2008,07,25,02,06,13.70
2008,07,25,02,07,13.70
2008,07,25,02,08,13.60
2008,07,25,02,09,13.60
2008,07,25,02,10,13.60
2008,07,25,02,11,13.60
2008,07,25,02,12,13.60
2008,07,25,02,13,13.50
2008,07,25,02,14,13.50
2008,07,25,02,15,13.50
2008,07,25,02,16,13.40
2008,07,25,02,17,13.30
2008,07,25,02,18,13.30
2008,07,25,02,19,13.30
2008,07,25,02,20,13.30
2008,07,25,02,21,13.20
2008,07,25,02,22,13.20
2008,07,25,02,23,13.10
2008,07,25,02,24,13.10
2008,07,25,02,25,13.10
2008,07,25,02,26,13.00
2008,07,25,02,27,13.00
2008,07,25,02,28,12.90
2008,07,25,02,29,12.80
2008,07,25,02,30,12.70
2008,07,25,02,31,12.60
2008,07,25,02,32,12.60
2008,07,25,02,33,12.50
2008,07,25,02,34,12.50
2008,07,25,02,35,12.40
2008,07,25,02,36,12.30
2008,07,25,02,37,12.30
2008,07,25,02,38,12.20
2008,07,25,02,39,12.20
2008,07,25,02,40,12.20
2008,07,25,02,41,12.10
2008,07,25,02,42,12.10
2008,07,25,02,43,12.00
2008,07,25,02,44,12.00
2008,07,25,02,45,11.90
2008,07,25,02,46,11.90
2008,07,25,02,47,11.90
2008,07,25,02,48,11.80
2008,07,25,02,49,11.80
2008,07,25,02,50,11.80
2008,07,25,02,51,11.80
2008,07,25,02,52,11.80
2008,07,25,02,53,11.80
2008,07,25,02,54,11.80
2008,07,25,02,55,11.80
2008,07,25,02,56,11.80
2008,07,25,02,57,11.70
2008,07,25,02,58,11.70
2008,07,25,02,59,11.70
2008,07,25,03,00,11.70
2008,07,25,03,01,11.70
2008,07,25,03,02,11.70
2008,07,25,03,03,11.70
2008,07,25,03,04,11.70
2008,07,25,03,05,11.70
2008,07,25,03,06,11.70
2008,07,25,03,07,11.70
2008,07,25,03,08,11.80
2008,07,25,03,09,11.80
2008,07,25,03,10,11.90
2008,07,25,03,11,11.90
2008,07,25,03,12,12.00
2008,07,25,03,13,12.00
2008,07,25,03,14,12.10
2008,07,25,03,15,12.10
2008,07,25,03,16,12.10
2008,07,25,03,17,12.10
2008,07,25,03,18,12.10
2008,07,25,03,19,12.10
2008,07,25,03,20,12.20
2008,07,25,03,21,12.20
2008,07,25,03,22,12.20
2008,07,25,03,23,12.20
2008,07,25,03,24,12.20
2008,07,25,03,25,12.20
2008,07,25,03,26,12.20
2008,07,25,03,27,12.20
2008,07,25,03,28,12.20
2008,07,25,03,29,12.20
2008,07,25,03,30,12.20
2008,07,25,03,31,12.30
2008,07,25,03,32,12.30
2008,07,25,03,33,12.30
2008,07,25,03,34,12.30
2008,07,25,03,35,12.30
2008,07,25,03,36,12.30
2008,07,25,03,37,12.30
2008,07,25,03,38,12.30
2008,07,25,03,39,12.30
2008,07,25,03,40,12.30
2008,07,25,03,41,12.30
2008,07,25,03,42,12.30
2008,07,25,03,43,12.30
2008,07,25,03,44,12.30
2008,07,25,03,45,12.30
2008,07,25,03,46,12.30
2008,07,25,03,47,12.30
2008,07,25,03,48,12.30
2008,07,25,03,49,12.30
2008,07,25,03,50,12.30
2008,07,25,03,51,12.40
2008,07,25,03,52,12.40
2008,07,25,03,53,12.40
2008,07,25,03,54,12.40
2008,07,25,03,55,12.30
2008,07,25,03,56,12.30
2008,07,25,03,57,12.30
2008,07,25,03,58,12.30
2008,07,25,03,59,12.30
2008,07,25,04,00,12.30
2008,07,25,04,01,12.30
2008,07,25,04,02,12.30
2008,07,25,04,03,12.30
2008,07,25,04,04,12.30
2008,07,25,04,05,12.30
2008,07,25,04,06,12.30
2008,07,25,04,07,12.30
2008,07,25,04,08,12.30
2008,07,25,04,09,12.30
2008,07,25,04,10,12.30
2008,07,25,04,11,12.30
2008,07,25,04,12,12.30
2008,07,25,04,13,12.30
2008,07,25,04,14,12.30
2008,07,25,04,15,12.30
2008,07,25,04,16,12.20
2008,07,25,04,17,12.20
2008,07,25,04,18,12.20
2008,07,25,04,19,12.20
2008,07,25,04,20,12.20
2008,07,25,04,21,12.20
2008,07,25,04,22,12.20
2008,07,25,04,23,12.20
2008,07,25,04,24,12.20
2008,07,25,04,25,12.20
2008,07,25,04,26,12.20
2008,07,25,04,27,12.20
2008,07,25,04,28,12.10
2008,07,25,04,29,12.10
2008,07,25,04,30,12.10
2008,07,25,04,31,12.10
2008,07,25,04,32,12.10
2008,07,25,04,33,12.00
2008,07,25,04,34,12.00
2008,07,25,04,35,12.00
2008,07,25,04,36,12.00
2008,07,25,04,37,12.00
2008,07,25,04,38,12.00
2008,07,25,04,39,12.00
2008,07,25,04,40,11.90
2008,07,25,04,41,11.90
2008,07,25,04,42,11.90
2008,07,25,04,43,11.90
2008,07,25,04,44,11.90
2008,07,25,04,45,11.90
2008,07,25,04,46,11.90
2008,07,25,04,47,11.90
2008,07,25,04,48,11.80
2008,07,25,04,49,11.80
2008,07,25,04,50,11.80
2008,07,25,04,51,11.80
2008,07,25,04,52,11.80
2008,07,25,04,53,11.80
2008,07,25,04,54,11.70
2008,07,25,04,55,11.70
2008,07,25,04,56,11.70
2008,07,25,04,57,11.70
2008,07,25,04,58,11.60
2008,07,25,04,59,11.60
2008,07,25,05,00,11.60
2008,07,25,05,01,11.60
2008,07,25,05,02,11.60
2008,07,25,05,03,11.60
2008,07,25,05,04,11.60
2008,07,25,05,05,11.60
2008,07,25,05,06,11.60
2008,07,25,05,07,11.40
2008,07,25,05,08,11.40
2008,07,25,05,09,11.40
2008,07,25,05,10,11.40
2008,07,25,05,11,11.40
2008,07,25,05,12,11.40
2008,07,25,05,13,11.40
2008,07,25,05,14,11.40
2008,07,25,05,15,11.40
2008,07,25,05,16,11.30
2008,07,25,05,17,11.30
2008,07,25,05,18,11.30
2008,07,25,05,19,11.30
2008,07,25,05,20,11.30
2008,07,25,05,21,11.20
2008,07,25,05,22,11.20
2008,07,25,05,23,11.20
2008,07,25,05,24,11.20
2008,07,25,05,25,11.20
2008,07,25,05,26,11.10
2008,07,25,05,27,11.10
2008,07,25,05,28,11.10
2008,07,25,05,29,11.10
2008,07,25,05,30,11.10
2008,07,25,05,31,11.10
2008,07,25,05,32,11.10
2008,07,25,05,33,11.10
2008,07,25,05,34,11.10
2008,07,25,05,35,11.10
2008,07,25,05,36,10.90
2008,07,25,05,37,10.90
2008,07,25,05,38,10.90
2008,07,25,05,39,10.90
2008,07,25,05,40,10.90
2008,07,25,05,41,10.90
2008,07,25,05,42,10.90
2008,07,25,05,43,10.90
2008,07,25,05,44,10.90
2008,07,25,05,45,10.90
2008,07,25,05,46,10.90
2008,07,25,05,47,10.90
2008,07,25,05,48,10.90
2008,07,25,05,49,10.90
2008,07,25,05,50,10.90
2008,07,25,05,51,10.90
2008,07,25,05,52,10.90
2008,07,25,05,53,10.90
2008,07,25,05,54,10.90
2008,07,25,05,55,10.80
2008,07,25,05,56,10.80
2008,07,25,05,57,10.80
2008,07,25,05,58,10.80
2008,07,25,05,59,10.80
2008,07,25,06,00,10.80
2008,07,25,06,01,10.80
2008,07,25,06,02,10.80
2008,07,25,06,03,10.80
2008,07,25,06,04,10.80
2008,07,25,06,05,10.80
2008,07,25,06,06,10.80
2008,07,25,06,07,10.90
2008,07,25,06,08,10.90
2008,07,25,06,09,10.80
2008,07,25,06,10,10.80
2008,07,25,06,11,10.80
2008,07,25,06,12,10.80
2008,07,25,06,13,10.80
2008,07,25,06,14,10.80
2008,07,25,06,15,10.80
2008,07,25,06,16,10.80
2008,07,25,06,17,10.90
2008,07,25,06,18,10.90
2008,07,25,06,19,10.90
2008,07,25,06,20,10.90
2008,07,25,06,21,10.90
2008,07,25,06,22,10.90
2008,07,25,06,23,10.90
2008,07,25,06,24,10.90
2008,07,25,06,25,10.90
2008,07,25,06,26,11.00
2008,07,25,06,27,11.10
2008,07,25,06,28,11.10
2008,07,25,06,29,11.10
2008,07,25,06,30,11.10
2008,07,25,06,31,11.10
2008,07,25,06,32,11.10
2008,07,25,06,33,11.10
2008,07,25,06,34,11.10
2008,07,25,06,35,11.10
2008,07,25,06,36,11.10
2008,07,25,06,37,11.10
2008,07,25,06,38,11.10
2008,07,25,06,39,11.20
2008,07,25,06,40,11.20
2008,07,25,06,41,11.20
2008,07,25,06,42,11.20
2008,07,25,06,43,11.30
2008,07,25,06,44,11.30
2008,07,25,06,45,11.30
2008,07,25,06,46,11.40
2008,07,25,06,47,11.40
2008,07,25,06,48,11.40
2008,07,25,06,49,11.40
2008,07,25,06,50,11.50
2008,07,25,06,51,11.60
2008,07,25,06,52,11.60
2008,07,25,06,53,11.60
2008,07,25,06,54,11.60
2008,07,25,06,55,11.70
2008,07,25,06,56,11.80
2008,07,25,06,57,11.80
2008,07,25,06,58,11.80
2008,07,25,06,59,11.90
2008,07,25,07,00,11.90
2008,07,25,07,01,11.90
2008,07,25,07,02,12.00
2008,07,25,07,03,12.00
2008,07,25,07,04,12.00
2008,07,25,07,05,12.10
2008,07,25,07,06,12.10
2008,07,25,07,07,12.10
2008,07,25,07,08,12.20
2008,07,25,07,09,12.20
2008,07,25,07,10,12.20
2008,07,25,07,11,12.30
2008,07,25,07,12,12.30
2008,07,25,07,13,12.30
2008,07,25,07,14,12.40
2008,07,25,07,15,12.40
2008,07,25,07,16,12.50
2008,07,25,07,17,12.50
2008,07,25,07,18,12.60
2008,07,25,07,19,12.60
2008,07,25,07,20,12.70
2008,07,25,07,21,12.70
2008,07,25,07,22,12.80
2008,07,25,07,23,12.80
2008,07,25,07,24,12.90
2008,07,25,07,25,12.90
2008,07,25,07,26,13.00
2008,07,25,07,27,13.10
2008,07,25,07,28,13.10
2008,07,25,07,29,13.20
2008,07,25,07,30,13.20
2008,07,25,07,31,13.30
2008,07,25,07,32,13.40
2008,07,25,07,33,13.50
2008,07,25,07,34,13.60
2008,07,25,07,35,13.70
2008,07,25,07,36,13.80
2008,07,25,07,37,13.90
2008,07,25,07,38,14.00
2008,07,25,07,39,14.10
2008,07,25,07,40,14.20
2008,07,25,07,41,14.30
2008,07,25,07,42,14.40
2008,07,25,07,43,14.50
2008,07,25,07,44,14.60
2008,07,25,07,45,14.70
2008,07,25,07,46,14.80
2008,07,25,07,47,14.80
2008,07,25,07,48,14.80
2008,07,25,07,49,14.80
2008,07,25,07,50,14.80
2008,07,25,07,51,14.80
2008,07,25,07,52,14.80
2008,07,25,07,53,14.80
2008,07,25,07,54,14.80
2008,07,25,07,55,14.80
2008,07,25,07,56,14.80
2008,07,25,07,57,14.80
2008,07,25,07,58,14.80
2008,07,25,07,59,14.80
2008,07,25,08,00,14.80
2008,07,25,08,01,14.90
2008,07,25,08,02,14.90
2008,07,25,08,03,15.00
2008,07,25,08,04,15.00
2008,07,25,08,05,15.10
2008,07,25,08,06,15.20
2008,07,25,08,07,15.20
2008,07,25,08,08,15.30
2008,07,25,08,09,15.30
2008,07,25,08,10,15.40
2008,07,25,08,11,15.50
2008,07,25,08,12,15.50
2008,07,25,08,13,15.50
2008,07,25,08,14,15.60
2008,07,25,08,15,15.60
2008,07,25,08,16,15.70
2008,07,25,08,17,15.60
2008,07,25,08,18,15.60
2008,07,25,08,19,15.50
2008,07,25,08,20,15.50
2008,07,25,08,21,15.40
2008,07,25,08,22,15.30
2008,07,25,08,23,15.30
2008,07,25,08,24,15.30
2008,07,25,08,25,15.30
2008,07,25,08,26,15.20
2008,07,25,08,27,15.20
2008,07,25,08,28,15.10
2008,07,25,08,29,15.20
2008,07,25,08,30,15.20
2008,07,25,08,31,15.20
2008,07,25,08,32,15.30
2008,07,25,08,33,15.40
2008,07,25,08,34,15.40
2008,07,25,08,35,15.50
2008,07,25,08,36,15.50
2008,07,25,08,37,15.50
2008,07,25,08,38,15.40
2008,07,25,08,39,15.40
2008,07,25,08,40,15.50
2008,07,25,08,41,15.50
2008,07,25,08,42,15.50
2008,07,25,08,43,15.40
2008,07,25,08,44,15.40
2008,07,25,08,45,15.40
2008,07,25,08,46,15.40
2008,07,25,08,47,15.40
2008,07,25,08,48,15.30
2008,07,25,08,49,15.30
2008,07,25,08,50,15.30
2008,07,25,08,51,15.30
2008,07,25,08,52,15.30
2008,07,25,08,53,15.30
2008,07,25,08,54,15.30
2008,07,25,08,55,15.30
2008,07,25,08,56,15.30
2008,07,25,08,57,15.30
2008,07,25,08,58,15.30
2008,07,25,08,59,15.30
2008,07,25,09,00,15.30
2008,07,25,09,01,15.30
2008,07,25,09,02,15.30
2008,07,25,09,03,15.20
2008,07,25,09,04,15.20
2008,07,25,09,05,15.10
2008,07,25,09,06,15.10
2008,07,25,09,07,15.10
2008,07,25,09,08,15.10
2008,07,25,09,09,15.10
2008,07,25,09,10,15.10
2008,07,25,09,11,15.00
2008,07,25,09,12,15.00
2008,07,25,09,13,15.00
2008,07,25,09,14,15.00
2008,07,25,09,15,14.90
2008,07,25,09,16,14.90
2008,07,25,09,17,14.90
2008,07,25,09,18,14.90
2008,07,25,09,19,14.90
2008,07,25,09,20,14.90
2008,07,25,09,21,14.90
2008,07,25,09,22,14.90
2008,07,25,09,23,15.00
2008,07,25,09,24,15.10
2008,07,25,09,25,15.10
2008,07,25,09,26,15.20
2008,07,25,09,27,15.30
2008,07,25,09,28,15.30
2008,07,25,09,29,15.40
2008,07,25,09,30,15.60
2008,07,25,09,31,15.70
2008,07,25,09,32,15.80
2008,07,25,09,33,15.80
2008,07,25,09,34,15.90
2008,07,25,09,35,15.80
2008,07,25,09,36,15.90
2008,07,25,09,37,15.90
2008,07,25,09,38,16.00
2008,07,25,09,39,16.10
2008,07,25,09,40,16.10
2008,07,25,09,41,16.10
2008,07,25,09,42,16.10
2008,07,25,09,43,16.10
2008,07,25,09,44,16.10
2008,07,25,09,45,16.10
2008,07,25,09,46,16.00
2008,07,25,09,47,15.90
2008,07,25,09,48,15.90
2008,07,25,09,49,16.00
2008,07,25,09,50,16.10
2008,07,25,09,51,16.10
2008,07,25,09,52,16.10
2008,07,25,09,53,16.10
2008,07,25,09,54,15.90
2008,07,25,09,55,15.90
2008,07,25,09,56,15.90
2008,07,25,09,57,15.90
2008,07,25,09,58,15.90
2008,07,25,09,59,16.10
2008,07,25,10,00,16.10
2008,07,25,10,01,16.10
2008,07,25,10,02,16.20
2008,07,25,10,03,16.30
2008,07,25,10,04,16.30
2008,07,25,10,05,16.30
2008,07,25,10,06,16.30
2008,07,25,10,07,16.30
2008,07,25,10,08,16.30
2008,07,25,10,09,16.20
2008,07,25,10,10,16.10
2008,07,25,10,11,16.20
2008,07,25,10,12,16.20
2008,07,25,10,13,16.20
2008,07,25,10,14,16.20
2008,07,25,10,15,16.30
2008,07,25,10,16,16.30
2008,07,25,10,17,16.30
2008,07,25,10,18,16.30
2008,07,25,10,19,16.30
2008,07,25,10,20,16.30
2008,07,25,10,21,16.40
2008,07,25,10,22,16.40
2008,07,25,10,23,16.50
2008,07,25,10,24,16.60
2008,07,25,10,25,16.70
2008,07,25,10,26,16.70
2008,07,25,10,27,16.80
2008,07,25,10,28,16.80
2008,07,25,10,29,16.90
2008,07,25,10,30,16.90
2008,07,25,10,31,16.90
2008,07,25,10,32,16.90
2008,07,25,10,33,17.00
2008,07,25,10,34,17.00
2008,07,25,10,35,16.90
2008,07,25,10,36,16.90
2008,07,25,10,37,16.90
2008,07,25,10,38,16.90
2008,07,25,10,39,16.90
2008,07,25,10,40,16.90
2008,07,25,10,41,16.80
2008,07,25,10,42,16.70
2008,07,25,10,43,16.70
2008,07,25,10,44,16.70
2008,07,25,10,45,16.70
2008,07,25,10,46,16.70
2008,07,25,10,47,16.70
2008,07,25,10,48,16.70
2008,07,25,10,49,16.60
2008,07,25,10,50,16.50
2008,07,25,10,51,16.40
2008,07,25,10,52,16.40
2008,07,25,10,53,16.40
2008,07,25,10,54,16.40
2008,07,25,10,55,16.40
2008,07,25,10,56,16.30
2008,07,25,10,57,16.30
2008,07,25,10,58,16.30
2008,07,25,10,59,16.20
2008,07,25,11,00,16.20
2008,07,25,11,01,16.20
2008,07,25,11,02,16.30
2008,07,25,11,03,16.30
2008,07,25,11,04,16.40
2008,07,25,11,05,16.40
2008,07,25,11,06,16.40
2008,07,25,11,07,16.40
2008,07,25,11,08,16.40
2008,07,25,11,09,16.40
2008,07,25,11,10,16.40
2008,07,25,11,11,16.30
2008,07,25,11,12,16.30
2008,07,25,11,13,16.20
2008,07,25,11,14,16.30
2008,07,25,11,15,16.20
2008,07,25,11,16,16.20
2008,07,25,11,17,16.10
2008,07,25,11,18,16.10
2008,07,25,11,19,16.20
2008,07,25,11,20,16.20
2008,07,25,11,21,16.20
2008,07,25,11,22,16.20
2008,07,25,11,23,16.20
2008,07,25,11,24,16.30
2008,07,25,11,25,16.30
2008,07,25,11,26,16.30
2008,07,25,11,27,16.40
2008,07,25,11,28,16.40
2008,07,25,11,29,16.50
2008,07,25,11,30,16.60
2008,07,25,11,31,16.70
2008,07,25,11,32,16.70
2008,07,25,11,33,16.70
2008,07,25,11,34,16.70
2008,07,25,11,35,16.70
2008,07,25,11,36,16.80
2008,07,25,11,37,16.90
2008,07,25,11,38,16.90
2008,07,25,11,39,16.90
2008,07,25,11,40,16.90
2008,07,25,11,41,17.00
2008,07,25,11,42,17.00
2008,07,25,11,43,17.10
2008,07,25,11,44,17.10
2008,07,25,11,45,17.20
2008,07,25,11,46,17.20
2008,07,25,11,47,17.30
2008,07,25,11,48,17.30
2008,07,25,11,49,17.40
2008,07,25,11,50,17.40
2008,07,25,11,51,17.40
2008,07,25,11,52,17.40
2008,07,25,11,53,17.40
2008,07,25,11,54,17.40
2008,07,25,11,55,17.40
2008,07,25,11,56,17.40
2008,07,25,11,57,17.40
2008,07,25,11,58,17.50
2008,07,25,11,59,17.50
2008,07,25,12,00,17.60
2008,07,25,12,01,17.70
2008,07,25,12,02,17.70
2008,07,25,12,03,17.80
2008,07,25,12,04,17.80
2008,07,25,12,05,17.90
2008,07,25,12,06,17.90
2008,07,25,12,07,17.90
2008,07,25,12,08,18.00
2008,07,25,12,09,18.20
2008,07,25,12,10,18.20
2008,07,25,12,11,18.30
2008,07,25,12,12,18.30
2008,07,25,12,13,18.40
2008,07,25,12,14,18.40
2008,07,25,12,15,18.50
2008,07,25,12,16,18.50
2008,07,25,12,17,18.50
2008,07,25,12,18,18.60
2008,07,25,12,19,18.60
2008,07,25,12,20,18.60
2008,07,25,12,21,18.60
2008,07,25,12,22,18.60
2008,07,25,12,23,18.60
2008,07,25,12,24,18.70
2008,07,25,12,25,18.70
2008,07,25,12,26,18.80
2008,07,25,12,27,18.80
2008,07,25,12,28,18.90
2008,07,25,12,29,18.90
2008,07,25,12,30,18.90
2008,07,25,12,31,19.00
2008,07,25,12,32,19.10
2008,07,25,12,33,19.10
2008,07,25,12,34,19.20
2008,07,25,12,35,19.20
2008,07,25,12,36,19.10
2008,07,25,12,37,19.10
2008,07,25,12,38,19.10
2008,07,25,12,39,19.10
2008,07,25,12,40,19.10
2008,07,25,12,41,19.10
2008,07,25,12,42,19.10
2008,07,25,12,43,19.10
2008,07,25,12,44,19.10
2008,07,25,12,45,19.20
2008,07,25,12,46,19.20
2008,07,25,12,47,19.30
2008,07,25,12,48,19.40
2008,07,25,12,49,19.50
2008,07,25,12,50,19.60
2008,07,25,12,51,19.80
2008,07,25,12,52,19.90
2008,07,25,12,53,19.90
2008,07,25,12,54,20.00
2008,07,25,12,55,20.10
2008,07,25,12,56,20.10
2008,07,25,12,57,20.20
2008,07,25,12,58,20.30
2008,07,25,12,59,20.30
2008,07,25,13,00,20.40
2008,07,25,13,01,20.50
2008,07,25,13,02,20.50
2008,07,25,13,03,20.70
2008,07,25,13,04,20.70
2008,07,25,13,05,20.90
2008,07,25,13,06,21.00
2008,07,25,13,07,21.10
2008,07,25,13,08,21.20
2008,07,25,13,09,21.20
2008,07,25,13,10,21.30
2008,07,25,13,11,21.30
2008,07,25,13,12,21.30
2008,07,25,13,13,21.40
2008,07,25,13,14,21.40
2008,07,25,13,15,21.50
2008,07,25,13,16,21.60
2008,07,25,13,17,21.70
2008,07,25,13,18,21.70
2008,07,25,13,19,21.70
2008,07,25,13,20,21.80
2008,07,25,13,21,21.80
2008,07,25,13,22,21.80
2008,07,25,13,23,21.90
2008,07,25,13,24,21.70
2008,07,25,13,25,21.70
2008,07,25,13,26,21.80
2008,07,25,13,27,21.90
2008,07,25,13,28,22.00
2008,07,25,13,29,22.20
2008,07,25,13,30,22.30
2008,07,25,13,31,22.40
2008,07,25,13,32,22.60
2008,07,25,13,33,22.70
2008,07,25,13,34,22.90
2008,07,25,13,35,22.90
2008,07,25,13,36,23.10
2008,07,25,13,37,23.10
2008,07,25,13,38,23.10
2008,07,25,13,39,23.20
2008,07,25,13,40,23.30
2008,07,25,13,41,23.30
2008,07,25,13,42,23.30
2008,07,25,13,43,23.40
2008,07,25,13,44,23.40
2008,07,25,13,45,23.30
2008,07,25,13,46,23.20
2008,07,25,13,47,23.10
2008,07,25,13,48,23.10
2008,07,25,13,49,23.10
2008,07,25,13,50,23.00
2008,07,25,13,51,22.90
2008,07,25,13,52,22.90
2008,07,25,13,53,22.90
2008,07,25,13,54,22.90
2008,07,25,13,55,23.00
2008,07,25,13,56,23.00
2008,07,25,13,57,22.90
2008,07,25,13,58,22.80
2008,07,25,13,59,22.70
2008,07,25,14,00,22.60
2008,07,25,14,01,22.40
2008,07,25,14,02,22.30
2008,07,25,14,03,22.10
2008,07,25,14,04,22.10
2008,07,25,14,05,22.00
2008,07,25,14,06,21.90
2008,07,25,14,07,21.90
2008,07,25,14,08,22.00
2008,07,25,14,09,22.10
2008,07,25,14,10,22.20
2008,07,25,14,11,22.30
2008,07,25,14,12,22.40
2008,07,25,14,13,22.40
2008,07,25,14,14,22.50
2008,07,25,14,15,22.50
2008,07,25,14,16,22.50
2008,07,25,14,17,22.50
2008,07,25,14,18,22.50
2008,07,25,14,19,22.50
2008,07,25,14,20,22.50
2008,07,25,14,21,22.50
2008,07,25,14,22,22.60
2008,07,25,14,23,22.60
2008,07,25,14,24,22.60
2008,07,25,14,25,22.60
2008,07,25,14,26,22.60
2008,07,25,14,27,22.60
2008,07,25,14,28,22.60
2008,07,25,14,29,22.50
2008,07,25,14,30,22.50
2008,07,25,14,31,22.50
2008,07,25,14,32,22.50
2008,07,25,14,33,22.60
2008,07,25,14,34,22.60
2008,07,25,14,35,22.70
2008,07,25,14,36,22.60
2008,07,25,14,37,22.50
2008,07,25,14,38,22.50
2008,07,25,14,39,22.50
2008,07,25,14,40,22.40
2008,07,25,14,41,22.30
2008,07,25,14,42,22.20
2008,07,25,14,43,22.10
2008,07,25,14,44,22.10
2008,07,25,14,45,22.20
2008,07,25,14,46,22.20
2008,07,25,14,47,22.20
2008,07,25,14,48,22.30
2008,07,25,14,49,22.30
2008,07,25,14,50,22.30
2008,07,25,14,51,22.30
2008,07,25,14,52,22.50
2008,07,25,14,53,22.60
2008,07,25,14,54,22.70
2008,07,25,14,55,22.80
2008,07,25,14,56,22.80
2008,07,25,14,57,22.80
2008,07,25,14,58,22.80
2008,07,25,14,59,22.70
2008,07,25,15,00,22.70
2008,07,25,15,01,22.80
2008,07,25,15,02,22.90
2008,07,25,15,03,23.00
2008,07,25,15,04,23.10
2008,07,25,15,05,23.30
2008,07,25,15,06,23.40
2008,07,25,15,07,23.60
2008,07,25,15,08,23.60
2008,07,25,15,09,23.60
2008,07,25,15,10,23.60
2008,07,25,15,11,23.60
2008,07,25,15,12,23.50
2008,07,25,15,13,23.40
2008,07,25,15,14,23.30
2008,07,25,15,15,23.10
2008,07,25,15,16,22.80
2008,07,25,15,17,22.60
2008,07,25,15,18,22.30
2008,07,25,15,19,22.20
2008,07,25,15,20,22.10
2008,07,25,15,21,22.00
2008,07,25,15,22,21.80
2008,07,25,15,23,21.70
2008,07,25,15,24,21.70
2008,07,25,15,25,21.60
2008,07,25,15,26,21.50
2008,07,25,15,27,21.40
2008,07,25,15,28,21.30
2008,07,25,15,29,21.20
2008,07,25,15,30,21.10
2008,07,25,15,31,21.00
2008,07,25,15,32,21.00
2008,07,25,15,33,21.00
2008,07,25,15,34,21.00
2008,07,25,15,35,20.90
2008,07,25,15,36,20.90
2008,07,25,15,37,20.90
2008,07,25,15,38,20.90
2008,07,25,15,39,20.80
2008,07,25,15,40,20.70
2008,07,25,15,41,20.70
2008,07,25,15,42,20.60
2008,07,25,15,43,20.60
2008,07,25,15,44,20.50
2008,07,25,15,45,20.60
2008,07,25,15,46,20.60
2008,07,25,15,47,20.60
2008,07,25,15,48,20.60
2008,07,25,15,49,20.60
2008,07,25,15,50,20.60
2008,07,25,15,51,20.60
2008,07,25,15,52,20.60
2008,07,25,15,53,20.60
2008,07,25,15,54,20.70
2008,07,25,15,55,20.70
2008,07,25,15,56,20.80
2008,07,25,15,57,20.80
2008,07,25,15,58,20.80
2008,07,25,15,59,20.80
2008,07,25,16,00,20.90
2008,07,25,16,01,20.90
2008,07,25,16,02,21.00
2008,07,25,16,03,21.00
2008,07,25,16,04,21.10
2008,07,25,16,05,21.30
2008,07,25,16,06,21.40
2008,07,25,16,07,21.50
2008,07,25,16,08,21.60
2008,07,25,16,09,21.60
2008,07,25,16,10,21.70
2008,07,25,16,11,21.90
2008,07,25,16,12,22.20
2008,07,25,16,13,22.40
2008,07,25,16,14,22.40
2008,07,25,16,15,22.50
2008,07,25,16,16,22.60
2008,07,25,16,17,22.70
2008,07,25,16,18,22.90
2008,07,25,16,19,23.10
2008,07,25,16,20,23.20
2008,07,25,16,21,23.40
2008,07,25,16,22,23.50
2008,07,25,16,23,23.60
2008,07,25,16,24,23.70
2008,07,25,16,25,23.70
2008,07,25,16,26,23.80
2008,07,25,16,27,23.80
2008,07,25,16,28,23.80
2008,07,25,16,29,23.80
2008,07,25,16,30,23.80
2008,07,25,16,31,23.80
2008,07,25,16,32,23.80
2008,07,25,16,33,23.80
2008,07,25,16,34,23.80
2008,07,25,16,35,23.80
2008,07,25,16,36,23.90
2008,07,25,16,37,23.90
2008,07,25,16,38,23.90
2008,07,25,16,39,23.90
2008,07,25,16,40,24.00
2008,07,25,16,41,24.10
2008,07,25,16,42,24.10
2008,07,25,16,43,24.20
2008,07,25,16,44,24.30
2008,07,25,16,45,24.40
2008,07,25,16,46,24.50
2008,07,25,16,47,24.50
2008,07,25,16,48,24.50
2008,07,25,16,49,24.60
2008,07,25,16,50,24.60
2008,07,25,16,51,24.50
2008,07,25,16,52,24.50
2008,07,25,16,53,24.40
2008,07,25,16,54,24.40
2008,07,25,16,55,24.40
2008,07,25,16,56,24.40
2008,07,25,16,57,24.30
2008,07,25,16,58,24.30
2008,07,25,16,59,24.30
2008,07,25,17,00,24.20
2008,07,25,17,01,24.20
2008,07,25,17,02,24.30
2008,07,25,17,03,24.30
2008,07,25,17,04,24.30
2008,07,25,17,05,24.30
2008,07,25,17,06,24.30
2008,07,25,17,07,24.20
2008,07,25,17,08,24.20
2008,07,25,17,09,24.10
2008,07,25,17,10,24.00
2008,07,25,17,11,23.90
2008,07,25,17,12,23.80
2008,07,25,17,13,23.70
2008,07,25,17,14,23.70
2008,07,25,17,15,23.70
2008,07,25,17,16,23.70
2008,07,25,17,17,23.70
2008,07,25,17,18,23.70
2008,07,25,17,19,23.70